| time (UTC) | temp F | wind direction | speed knots | gust knots | rain 1hr in | rain 24hr in | rain mn in | humidity % | barometer mb |
| 20260503034340 | 53 | 188 | 0.0 | 0.0 | 0.00 | 0.00 | 0.00 | 78 | 1011.9 |
| 20260503033836 | 54 | 188 | 0.0 | 0.0 | 0.00 | 0.00 | 0.00 | 78 | 1011.9 |
| 20260503033334 | 54 | 188 | 0.0 | 0.0 | 0.00 | 0.00 | 0.00 | 77 | 1011.9 |
| 20260503032834 | 54 | 188 | 0.0 | 0.0 | 0.00 | 0.00 | 0.00 | 77 | 1011.7 |
| 20260503032601 | 54 | 188 | 0.0 | 0.0 | 0.00 | 0.00 | 0.00 | 77 | 1011.7 |
| 20260503031832 | 54 | 188 | 0.0 | 0.0 | 0.00 | 0.00 | 0.00 | 77 | 1011.7 |
| 20260503031559 | 54 | 188 | 0.0 | 0.0 | 0.00 | 0.00 | 0.00 | 76 | 1011.7 |
| 20260503030832 | 55 | 188 | 0.0 | 0.0 | 0.00 | 0.00 | 0.00 | 75 | 1011.7 |
| 20260503030332 | 55 | 188 | 0.0 | 0.0 | 0.00 | 0.00 | 0.00 | 75 | 1011.7 |
| 20260503025830 | 55 | 188 | 0.0 | 0.0 | 0.00 | 0.00 | 0.00 | 75 | 1011.8 |
| 20260503025555 | 55 | 188 | 0.0 | 0.0 | 0.00 | 0.00 | 0.00 | 75 | 1011.8 |
| 20260503024830 | 55 | 188 | 0.0 | 0.0 | 0.00 | 0.00 | 0.00 | 74 | 1011.8 |
| 20260503024330 | 55 | 188 | 0.0 | 0.0 | 0.00 | 0.00 | 0.00 | 74 | 1011.9 |
| 20260503023830 | 55 | 188 | 0.0 | 0.0 | 0.00 | 0.00 | 0.00 | 74 | 1011.9 |
| 20260503023331 | 55 | 188 | 0.0 | 0.0 | 0.00 | 0.00 | 0.00 | 74 | 1011.9 |
| 20260503022831 | 56 | 188 | 0.0 | 0.0 | 0.00 | 0.00 | 0.00 | 74 | 1011.9 |
| 20260503022331 | 56 | 188 | 0.0 | 0.0 | 0.00 | 0.00 | 0.00 | 74 | 1011.9 |
| 20260503022058 | 56 | 188 | 0.0 | 0.0 | 0.00 | 0.00 | 0.00 | 73 | 1011.9 |
| 20260503021330 | 56 | 188 | 0.0 | 0.0 | 0.00 | 0.00 | 0.00 | 73 | 1012.2 |
| 20260503020832 | 56 | 188 | 0.0 | 0.0 | 0.00 | 0.00 | 0.00 | 73 | 1012.2 |
| 20260503020331 | 56 | 188 | 0.0 | 0.0 | 0.00 | 0.00 | 0.00 | 74 | 1012.2 |
| 20260503015830 | 56 | 192 | 0.0 | 0.0 | 0.00 | 0.00 | 0.00 | 74 | 1012.0 |
| 20260503015557 | 56 | 192 | 0.0 | 0.0 | 0.00 | 0.00 | 0.00 | 74 | 1012.0 |
| 20260503014830 | 56 | 190 | 0.0 | 0.0 | 0.00 | 0.00 | 0.00 | 74 | 1012.0 |
| 20260503014330 | 56 | 193 | 0.0 | 0.0 | 0.00 | 0.00 | 0.00 | 74 | 1011.9 |
| 20260503013831 | 55 | 179 | 0.0 | 0.0 | 0.00 | 0.00 | 0.00 | 73 | 1011.9 |
| 20260503013330 | 56 | 179 | 0.0 | 0.0 | 0.00 | 0.00 | 0.00 | 73 | 1011.9 |
| 20260503013055 | 56 | 179 | 0.0 | 0.0 | 0.00 | 0.00 | 0.00 | 73 | 1011.9 |
| 20260503012330 | 56 | 179 | 0.0 | 0.0 | 0.00 | 0.00 | 0.00 | 73 | 1011.9 |
| 20260503011830 | 56 | 179 | 0.0 | 0.0 | 0.00 | 0.00 | 0.00 | 72 | 1011.9 |
| 20260503011330 | 56 | 179 | 0.0 | 0.0 | 0.00 | 0.00 | 0.00 | 72 | 1011.9 |
| 20260503011324 | 56 | 179 | 0.0 | 0.9 | 0.00 | 0.00 | 0.00 | 72 | 1011.9 |
| 20260503010332 | 56 | 179 | 0.0 | 0.9 | 0.00 | 0.00 | 0.00 | 72 | 1011.9 |
| 20260503005830 | 56 | 174 | 0.0 | 0.0 | 0.00 | 0.00 | 0.00 | 72 | 1011.9 |
| 20260503005331 | 56 | 174 | 0.0 | 0.0 | 0.00 | 0.00 | 0.00 | 72 | 1011.9 |
| 20260503005100 | 56 | 174 | 0.0 | 0.0 | 0.00 | 0.00 | 0.00 | 72 | 1011.9 |
| 20260503004327 | 56 | 173 | 0.0 | 0.9 | 0.00 | 0.00 | 0.00 | 71 | 1012.3 |
| 20260503003821 | 56 | 173 | 0.0 | 0.9 | 0.00 | 0.00 | 0.00 | 71 | 1012.3 |
| 20260503003559 | 56 | 171 | 0.0 | 0.0 | 0.00 | 0.00 | 0.00 | 70 | 1012.3 |
| 20260503002829 | 56 | 171 | 0.0 | 0.0 | 0.00 | 0.00 | 0.00 | 69 | 1012.4 |
| 20260503002822 | 56 | 171 | 0.0 | 0.0 | 0.00 | 0.00 | 0.00 | 69 | 1012.4 |
| 20260503002047 | 57 | 171 | 0.0 | 0.0 | 0.00 | 0.00 | 0.00 | 69 | 1012.4 |
| 20260503001313 | 57 | 171 | 0.0 | 0.0 | 0.00 | 0.00 | 0.00 | 67 | 1012.5 |
| 20260503001040 | 57 | 171 | 0.0 | 0.0 | 0.00 | 0.00 | 0.00 | 67 | 1012.5 |
| 20260503000312 | 57 | 171 | 0.0 | 0.0 | 0.00 | 0.00 | 0.00 | 66 | 1012.5 |
| 20260502235811 | 57 | 171 | 0.0 | 0.0 | 0.00 | 0.00 | 0.00 | 66 | 1012.6 |
| 20260502235309 | 58 | 171 | 0.0 | 0.0 | 0.00 | 0.00 | 0.00 | 65 | 1012.6 |
| 20260502235031 | 58 | 171 | 0.0 | 0.0 | 0.00 | 0.00 | 0.00 | 65 | 1012.6 |
| 20260502234306 | 58 | 171 | 0.0 | 0.0 | 0.00 | 0.00 | 0.00 | 64 | 1013.0 |
| 20260502233807 | 58 | 171 | 0.0 | 0.0 | 0.00 | 0.00 | 0.00 | 63 | 1013.0 |
| 20260502233800 | 58 | 171 | 0.0 | 0.0 | 0.00 | 0.00 | 0.00 | 63 | 1013.0 |
| 20260502232804 | 58 | 159 | 0.0 | 0.0 | 0.00 | 0.00 | 0.00 | 62 | 1013.0 |
| 20260502232304 | 58 | 159 | 0.0 | 0.0 | 0.00 | 0.00 | 0.00 | 62 | 1013.0 |
| 20260502231804 | 58 | 159 | 0.0 | 0.0 | 0.00 | 0.00 | 0.00 | 61 | 1013.0 |
| 20260502231303 | 59 | 159 | 0.0 | 0.0 | 0.00 | 0.00 | 0.00 | 61 | 1013.0 |
| 20260502230803 | 59 | 155 | 0.0 | 0.0 | 0.00 | 0.00 | 0.00 | 61 | 1013.0 |
| 20260502230304 | 58 | 155 | 0.0 | 0.9 | 0.00 | 0.00 | 0.00 | 61 | 1013.0 |
| 20260502225804 | 58 | 213 | 0.0 | 0.9 | 0.00 | 0.00 | 0.00 | 61 | 1012.9 |
| 20260502225304 | 58 | 213 | 0.0 | 0.9 | 0.00 | 0.00 | 0.00 | 62 | 1012.9 |
| 20260502224804 | 58 | 213 | 0.0 | 0.9 | 0.00 | 0.00 | 0.00 | 62 | 1012.9 |
| 20260502224535 | 58 | 213 | 0.0 | 0.0 | 0.00 | 0.00 | 0.00 | 60 | 1013.0 |
| 20260502223803 | 58 | 213 | 0.0 | 0.9 | 0.00 | 0.00 | 0.00 | 59 | 1013.0 |
| 20260502223304 | 58 | 213 | 0.0 | 0.9 | 0.00 | 0.00 | 0.00 | 59 | 1013.0 |
| 20260502223258 | 59 | 213 | 0.0 | 0.9 | 0.00 | 0.00 | 0.00 | 59 | 1012.8 |
| 20260502222538 | 59 | 213 | 0.0 | 0.9 | 0.00 | 0.00 | 0.00 | 58 | 1012.8 |
| 20260502221804 | 59 | 213 | 0.0 | 0.9 | 0.00 | 0.00 | 0.00 | 57 | 1012.8 |
| 20260502221304 | 59 | 213 | 0.0 | 0.0 | 0.00 | 0.00 | 0.00 | 56 | 1012.8 |
| 20260502221032 | 60 | 213 | 0.0 | 0.0 | 0.00 | 0.00 | 0.00 | 56 | 1012.8 |
| 20260502220304 | 60 | 213 | 0.0 | 0.0 | 0.00 | 0.00 | 0.00 | 56 | 1012.8 |
| 20260502215803 | 60 | 213 | 0.0 | 0.0 | 0.00 | 0.00 | 0.00 | 56 | 1012.8 |
| 20260502215535 | 60 | 213 | 0.0 | 0.0 | 0.00 | 0.00 | 0.00 | 55 | 1012.8 |
| 20260502214802 | 60 | 213 | 0.0 | 0.0 | 0.00 | 0.00 | 0.00 | 55 | 1012.8 |
| 20260502214302 | 60 | 213 | 0.0 | 0.0 | 0.00 | 0.00 | 0.00 | 55 | 1012.8 |
| 20260502214028 | 60 | 213 | 0.0 | 0.0 | 0.00 | 0.00 | 0.00 | 53 | 1012.8 |
| 20260502213303 | 60 | 213 | 0.0 | 0.0 | 0.00 | 0.00 | 0.00 | 53 | 1012.8 |
| 20260502212803 | 60 | 213 | 0.0 | 0.0 | 0.00 | 0.00 | 0.00 | 52 | 1012.8 |
| 20260502212259 | 61 | 213 | 0.0 | 0.0 | 0.00 | 0.00 | 0.00 | 52 | 1012.8 |
| 20260502211754 | 61 | 213 | 0.0 | 0.0 | 0.00 | 0.00 | 0.00 | 52 | 1012.8 |
| 20260502211536 | 61 | 213 | 0.0 | 0.0 | 0.00 | 0.00 | 0.00 | 52 | 1012.8 |
| 20260502210744 | 62 | 213 | 0.0 | 0.0 | 0.00 | 0.00 | 0.00 | 52 | 1012.8 |
| 20260502210241 | 62 | 213 | 0.0 | 0.0 | 0.00 | 0.00 | 0.00 | 51 | 1012.8 |
| 20260502205738 | 62 | 213 | 0.0 | 0.0 | 0.00 | 0.00 | 0.00 | 51 | 1012.8 |
| 20260502205237 | 63 | 213 | 0.0 | 0.9 | 0.00 | 0.00 | 0.00 | 52 | 1012.8 |
| 20260502204735 | 63 | 213 | 0.0 | 0.9 | 0.00 | 0.00 | 0.00 | 52 | 1012.8 |
| 20260502204235 | 63 | 213 | 0.0 | 0.9 | 0.00 | 0.00 | 0.00 | 50 | 1012.6 |
| 20260502203735 | 63 | 213 | 0.0 | 0.9 | 0.00 | 0.00 | 0.00 | 50 | 1012.6 |
| 20260502203232 | 63 | 213 | 0.0 | 0.0 | 0.00 | 0.00 | 0.00 | 50 | 1012.6 |
| 20260502202955 | 63 | 213 | 0.0 | 0.0 | 0.00 | 0.00 | 0.00 | 51 | 1012.6 |
| 20260502202232 | 63 | 213 | 0.0 | 0.0 | 0.00 | 0.00 | 0.00 | 50 | 1012.6 |
| 20260502202008 | 63 | 213 | 0.0 | 0.0 | 0.00 | 0.00 | 0.00 | 51 | 1012.6 |
| 20260502201231 | 63 | 213 | 0.0 | 0.0 | 0.00 | 0.00 | 0.00 | 52 | 1012.6 |
| 20260502200731 | 63 | 213 | 0.0 | 0.0 | 0.00 | 0.00 | 0.00 | 52 | 1012.6 |
| 20260502200230 | 63 | 213 | 0.0 | 0.0 | 0.00 | 0.00 | 0.00 | 51 | 1012.6 |
| 20260502195731 | 63 | 213 | 0.0 | 0.0 | 0.00 | 0.00 | 0.00 | 52 | 1012.5 |
| 20260502195231 | 64 | 213 | 0.0 | 0.9 | 0.00 | 0.00 | 0.00 | 52 | 1012.5 |
| 20260502194732 | 63 | 213 | 0.0 | 0.9 | 0.00 | 0.00 | 0.00 | 52 | 1012.5 |
| 20260502194230 | 63 | 213 | 0.0 | 0.9 | 0.00 | 0.00 | 0.00 | 51 | 1012.4 |
| 20260502193954 | 64 | 213 | 0.0 | 0.0 | 0.00 | 0.00 | 0.00 | 51 | 1012.4 |
| 20260502193228 | 64 | 213 | 0.0 | 0.0 | 0.00 | 0.00 | 0.00 | 50 | 1012.4 |
| 20260502192728 | 64 | 213 | 0.0 | 0.0 | 0.00 | 0.00 | 0.00 | 49 | 1012.3 |
| 20260502192227 | 64 | 213 | 0.0 | 0.0 | 0.00 | 0.00 | 0.00 | 49 | 1012.3 |
| 20260502191954 | 65 | 213 | 0.0 | 0.9 | 0.00 | 0.00 | 0.00 | 49 | 1012.3 |
| 20260502191224 | 65 | 213 | 0.0 | 0.9 | 0.00 | 0.00 | 0.00 | 48 | 1012.3 |
| 20260502190722 | 65 | 213 | 0.0 | 0.9 | 0.00 | 0.00 | 0.00 | 47 | 1012.3 |
| 20260502190449 | 65 | 213 | 0.0 | 0.9 | 0.00 | 0.00 | 0.00 | 47 | 1012.3 |
| 20260502185722 | 65 | 213 | 0.0 | 0.9 | 0.00 | 0.00 | 0.00 | 46 | 1012.2 |
| 20260502185222 | 65 | 213 | 0.0 | 0.0 | 0.00 | 0.00 | 0.00 | 47 | 1012.2 |
| 20260502184722 | 66 | 213 | 0.0 | 0.0 | 0.00 | 0.00 | 0.00 | 47 | 1012.2 |
| 20260502184222 | 66 | 213 | 0.0 | 0.0 | 0.00 | 0.00 | 0.00 | 47 | 1012.2 |
| 20260502183949 | 67 | 213 | 0.0 | 0.0 | 0.00 | 0.00 | 0.00 | 46 | 1012.2 |
| 20260502183220 | 67 | 213 | 0.0 | 0.0 | 0.00 | 0.00 | 0.00 | 46 | 1012.2 |
| 20260502182941 | 68 | 213 | 0.0 | 0.0 | 0.00 | 0.00 | 0.00 | 46 | 1012.1 |
| 20260502182214 | 68 | 213 | 0.0 | 0.0 | 0.00 | 0.00 | 0.00 | 45 | 1012.1 |
| 20260502181709 | 69 | 213 | 0.0 | 0.0 | 0.00 | 0.00 | 0.00 | 45 | 1012.1 |
| 20260502181659 | 69 | 213 | 0.0 | 0.0 | 0.00 | 0.00 | 0.00 | 45 | 1011.9 |
| 20260502180705 | 69 | 213 | 0.0 | 0.0 | 0.00 | 0.00 | 0.00 | 45 | 1011.9 |
| 20260502180434 | 70 | 213 | 0.0 | 0.0 | 0.00 | 0.00 | 0.00 | 45 | 1011.9 |
| 20260502170203 | 73 | 213 | 0.0 | 0.0 | 0.00 | 0.00 | 0.00 | 38 | 1012.2 |
| 20260502164205 | 73 | 263 | 0.9 | 3.5 | 0.00 | 0.00 | 0.00 | 37 | 1012.4 |
| 20260502163704 | 73 | 218 | 0.0 | 2.6 | 0.00 | 0.00 | 0.00 | 40 | 1012.4 |
| 20260502163205 | 73 | 244 | 0.0 | 1.7 | 0.00 | 0.00 | 0.00 | 42 | 1012.4 |
| 20260502162704 | 74 | 223 | 0.9 | 2.6 | 0.00 | 0.00 | 0.00 | 41 | 1012.6 |
| 20260502162205 | 73 | 231 | 0.9 | 3.5 | 0.00 | 0.00 | 0.00 | 41 | 1012.6 |
| 20260502161705 | 74 | 242 | 0.9 | 3.5 | 0.00 | 0.00 | 0.00 | 40 | 1012.6 |
| 20260502161205 | 74 | 242 | 0.9 | 3.5 | 0.00 | 0.00 | 0.00 | 41 | 1012.9 |
| 20260502160735 | 74 | 232 | 0.9 | 3.5 | 0.00 | 0.00 | 0.00 | 41 | 1012.9 |
| 20260502160727 | 74 | 260 | 0.9 | 3.5 | 0.00 | 0.00 | 0.00 | 41 | 1012.9 |
| 20260502152204 | 75 | 250 | 1.7 | 5.2 | 0.00 | 0.00 | 0.00 | 38 | 1013.2 |
| 20260502151704 | 75 | 224 | 1.7 | 6.1 | 0.00 | 0.00 | 0.00 | 36 | 1013.2 |
| 20260502151204 | 75 | 217 | 1.7 | 6.1 | 0.00 | 0.00 | 0.00 | 34 | 1013.3 |
| 20260502150704 | 75 | 251 | 1.7 | 5.2 | 0.00 | 0.00 | 0.00 | 35 | 1013.3 |
| 20260502150204 | 76 | 275 | 0.9 | 3.5 | 0.00 | 0.00 | 0.00 | 35 | 1013.3 |
| 20260502150147 | 76 | 151 | 0.9 | 3.5 | 0.00 | 0.00 | 0.00 | 33 | 1013.5 |
| 20260502130340 | 75 | 208 | 0.9 | 2.6 | 0.00 | 0.00 | 0.00 | 40 | 1014.7 |
| 20260502123100 | 75 | 76 | 1.7 | 4.3 | 0.00 | 0.00 | 0.00 | 40 | 1015.2 |
| 20260502122831 | 75 | 145 | 1.7 | 3.5 | 0.00 | 0.00 | 0.00 | 39 | 1015.3 |
| 20260502122328 | 75 | 211 | 0.9 | 3.5 | 0.00 | 0.00 | 0.00 | 39 | 1015.3 |
| 20260502121827 | 75 | 192 | 0.9 | 4.3 | 0.00 | 0.00 | 0.00 | 40 | 1015.3 |
| 20260502121332 | 75 | 209 | 0.9 | 4.3 | 0.00 | 0.00 | 0.00 | 40 | 1015.7 |
| 20260502120544 | 74 | 64 | 0.9 | 3.5 | 0.00 | 0.00 | 0.00 | 41 | 1015.7 |
| 20260502115802 | 73 | 186 | 1.7 | 3.5 | 0.00 | 0.00 | 0.00 | 42 | 1015.8 |
| 20260502115036 | 72 | 165 | 1.7 | 4.3 | 0.00 | 0.00 | 0.00 | 44 | 1015.8 |
| 20260502114805 | 72 | 178 | 1.7 | 5.2 | 0.00 | 0.00 | 0.00 | 44 | 1015.8 |
| 20260502114036 | 72 | 173 | 1.7 | 5.2 | 0.00 | 0.00 | 0.00 | 42 | 1016.1 |
| 20260502113536 | 72 | 141 | 1.7 | 3.5 | 0.00 | 0.00 | 0.00 | 41 | 1016.1 |
| 20260502113036 | 72 | 183 | 1.7 | 4.3 | 0.00 | 0.00 | 0.00 | 43 | 1016.1 |
| 20260502112536 | 72 | 222 | 1.7 | 4.3 | 0.00 | 0.00 | 0.00 | 42 | 1016.2 |
| 20260502112036 | 72 | 144 | 1.7 | 5.2 | 0.00 | 0.00 | 0.00 | 42 | 1016.2 |
| 20260502111534 | 72 | 181 | 1.7 | 5.2 | 0.00 | 0.00 | 0.00 | 42 | 1016.2 |
| 20260502111033 | 72 | 158 | 1.7 | 4.3 | 0.00 | 0.00 | 0.00 | 41 | 1016.6 |
| 20260502110534 | 72 | 147 | 1.7 | 4.3 | 0.00 | 0.00 | 0.00 | 41 | 1016.6 |
| 20260502110047 | 71 | 187 | 1.7 | 4.3 | 0.00 | 0.00 | 0.00 | 43 | 1016.6 |
| 20260502105535 | 71 | 181 | 1.7 | 4.3 | 0.00 | 0.00 | 0.00 | 45 | 1016.8 |
| 20260502105050 | 72 | 110 | 1.7 | 4.3 | 0.00 | 0.00 | 0.00 | 45 | 1016.8 |
| 20260502104804 | 71 | 140 | 1.7 | 4.3 | 0.00 | 0.00 | 0.00 | 45 | 1016.8 |
| 20260502104034 | 71 | 252 | 1.7 | 4.3 | 0.00 | 0.00 | 0.00 | 45 | 1017.0 |
| 20260502103533 | 71 | 193 | 1.7 | 5.2 | 0.00 | 0.00 | 0.00 | 45 | 1017.0 |
| 20260502103033 | 71 | 249 | 1.7 | 5.2 | 0.00 | 0.00 | 0.00 | 44 | 1017.0 |
| 20260502102800 | 71 | 153 | 1.7 | 4.3 | 0.00 | 0.00 | 0.00 | 45 | 1017.3 |
| 20260502102259 | 70 | 249 | 1.7 | 4.3 | 0.00 | 0.00 | 0.00 | 47 | 1017.3 |
| 20260502101532 | 70 | 175 | 1.7 | 4.3 | 0.00 | 0.00 | 0.00 | 44 | 1017.3 |
| 20260502101032 | 69 | 201 | 1.7 | 3.5 | 0.00 | 0.00 | 0.00 | 45 | 1017.3 |
| 20260502100554 | 69 | 192 | 1.7 | 4.3 | 0.00 | 0.00 | 0.00 | 43 | 1017.3 |
| 20260502100547 | 69 | 207 | 1.7 | 4.3 | 0.00 | 0.00 | 0.00 | 45 | 1017.3 |
| 20260502091532 | 67 | 184 | 0.9 | 3.5 | 0.00 | 0.00 | 0.00 | 49 | 1017.9 |
| 20260502091033 | 67 | 160 | 0.9 | 2.6 | 0.00 | 0.00 | 0.00 | 51 | 1018.2 |
| 20260502090532 | 66 | 192 | 1.7 | 3.5 | 0.00 | 0.00 | 0.00 | 52 | 1018.2 |
| 20260502071532 | 60 | 176 | 0.9 | 1.7 | 0.00 | 0.00 | 0.00 | 59 | 1018.9 |
| 20260502071032 | 60 | 188 | 0.9 | 2.6 | 0.00 | 0.00 | 0.00 | 60 | 1018.9 |
| 20260502070758 | 60 | 186 | 0.9 | 2.6 | 0.00 | 0.00 | 0.00 | 62 | 1018.9 |
| 20260502070045 | 59 | 197 | 0.9 | 2.6 | 0.00 | 0.00 | 0.00 | 62 | 1018.9 |
| 20260502065544 | 59 | 178 | 0.9 | 1.7 | 0.00 | 0.00 | 0.00 | 63 | 1018.9 |
| 20260502065031 | 58 | 184 | 0.9 | 1.7 | 0.00 | 0.00 | 0.00 | 65 | 1018.9 |
| 20260502064610 | 56 | 155 | 0.0 | 1.7 | 0.00 | 0.00 | 0.00 | 69 | 1018.9 |
| 20260502064601 | 57 | 171 | 0.9 | 1.7 | 0.00 | 0.00 | 0.00 | 68 | 1018.9 |
| 20260502063532 | 56 | 162 | 0.0 | 1.7 | 0.00 | 0.00 | 0.00 | 70 | 1018.9 |
| 20260502063031 | 56 | 173 | 0.0 | 0.9 | 0.00 | 0.00 | 0.00 | 69 | 1018.9 |
| 20260502062534 | 56 | 168 | 0.0 | 1.7 | 0.00 | 0.00 | 0.00 | 69 | 1018.9 |
| 20260502062234 | 56 | 168 | 0.0 | 1.7 | 0.00 | 0.00 | 0.00 | 69 | 1018.9 |
| 20260502061031 | 56 | 164 | 0.9 | 2.6 | 0.00 | 0.00 | 0.00 | 69 | 1018.9 |
| 20260502060532 | 56 | 172 | 0.0 | 2.6 | 0.00 | 0.00 | 0.00 | 70 | 1018.9 |
| 20260502060044 | 56 | 169 | 0.0 | 2.6 | 0.00 | 0.00 | 0.00 | 71 | 1018.9 |
| 20260502055533 | 55 | 178 | 0.0 | 1.7 | 0.00 | 0.00 | 0.00 | 73 | 1018.8 |
| 20260502055031 | 55 | 186 | 0.0 | 1.7 | 0.00 | 0.00 | 0.00 | 74 | 1018.8 |
| 20260502054806 | 55 | 173 | 0.0 | 1.7 | 0.00 | 0.00 | 0.00 | 74 | 1018.8 |
| 20260502054801 | 54 | 171 | 0.0 | 1.7 | 0.00 | 0.00 | 0.00 | 75 | 1018.8 |
| 20260502053755 | 54 | 172 | 0.0 | 0.9 | 0.00 | 0.00 | 0.00 | 75 | 1018.8 |
| 20260502053033 | 53 | 173 | 0.0 | 0.9 | 0.00 | 0.00 | 0.00 | 77 | 1018.8 |
| 20260502052532 | 53 | 178 | 0.0 | 0.9 | 0.00 | 0.00 | 0.00 | 77 | 1018.7 |
| 20260502052106 | 53 | 171 | 0.0 | 0.9 | 0.00 | 0.00 | 0.00 | 78 | 1018.7 |
| 20260502052057 | 53 | 171 | 0.0 | 0.9 | 0.00 | 0.00 | 0.00 | 78 | 1018.7 |
| 20260502051032 | 52 | 169 | 0.0 | 0.9 | 0.00 | 0.00 | 0.00 | 79 | 1018.5 |
| 20260502050532 | 52 | 172 | 0.0 | 0.0 | 0.00 | 0.00 | 0.00 | 79 | 1018.5 |
| 20260502050031 | 52 | 170 | 0.0 | 0.0 | 0.00 | 0.00 | 0.00 | 79 | 1018.5 |
| 20260502045532 | 51 | 173 | 0.0 | 0.0 | 0.00 | 0.00 | 0.00 | 79 | 1018.5 |
| 20260502045024 | 51 | 173 | 0.0 | 0.0 | 0.00 | 0.00 | 0.00 | 79 | 1018.5 |
| 20260502044748 | 50 | 173 | 0.0 | 0.0 | 0.00 | 0.00 | 0.00 | 78 | 1018.5 |
| 20260502044016 | 50 | 173 | 0.0 | 0.0 | 0.00 | 0.00 | 0.00 | 77 | 1018.4 |
| 20260502043735 | 50 | 173 | 0.0 | 0.0 | 0.00 | 0.00 | 0.00 | 76 | 1018.4 |
| 20260502043241 | 49 | 173 | 0.0 | 0.0 | 0.00 | 0.00 | 0.00 | 75 | 1018.4 |
| 20260502042508 | 49 | 173 | 0.0 | 0.0 | 0.00 | 0.00 | 0.00 | 75 | 1018.5 |
| 20260502042500 | 49 | 173 | 0.0 | 0.0 | 0.00 | 0.00 | 0.00 | 74 | 1018.5 |
| 20260502041517 | 49 | 173 | 0.0 | 0.0 | 0.00 | 0.00 | 0.00 | 74 | 1018.5 |
| 20260502041254 | 49 | 173 | 0.0 | 0.0 | 0.00 | 0.00 | 0.00 | 74 | 1018.4 |
| 20260502040505 | 49 | 173 | 0.0 | 0.0 | 0.00 | 0.00 | 0.00 | 74 | 1018.4 |
| 20260502040005 | 49 | 173 | 0.0 | 0.0 | 0.00 | 0.00 | 0.00 | 74 | 1018.4 |
| 20260502035505 | 49 | 173 | 0.0 | 0.0 | 0.00 | 0.00 | 0.00 | 73 | 1018.4 |
| 20260502035004 | 49 | 173 | 0.0 | 0.0 | 0.00 | 0.00 | 0.00 | 73 | 1018.4 |
| 20260502034956 | 49 | 173 | 0.0 | 0.0 | 0.00 | 0.00 | 0.00 | 72 | 1018.4 |